| time (UTC) | temp F | wind direction | speed MPH | gust MPH | rain 1hr in | rain 24hr in | rain mn in | humidity % | barometer mb |
| 20260906115421 | 73 | 229 | 0.0 | 0.0 | 0.00 | 0.00 | 0.00 | 75 | 1013.8 |
| 20260906114921 | 73 | 229 | 0.0 | 0.0 | 0.00 | 0.00 | 0.00 | 74 | 1013.8 |
| 20260906114415 | 73 | 258 | 0.0 | 0.0 | 0.00 | 0.00 | 0.00 | 74 | 1013.8 |
| 20260906113911 | 73 | 233 | 0.0 | 0.0 | 0.00 | 0.00 | 0.00 | 74 | 1013.8 |
| 20260906113410 | 73 | 269 | 0.0 | 0.0 | 0.00 | 0.00 | 0.00 | 74 | 1013.8 |
| 20260906112906 | 73 | 221 | 0.0 | 0.0 | 0.00 | 0.00 | 0.00 | 74 | 1013.4 |
| 20260906112401 | 73 | 220 | 0.0 | 0.0 | 0.00 | 0.00 | 0.00 | 73 | 1013.4 |
| 20260906111856 | 74 | 231 | 0.0 | 0.0 | 0.00 | 0.00 | 0.00 | 73 | 1013.4 |
| 20260906111355 | 74 | 251 | 0.0 | 0.0 | 0.00 | 0.00 | 0.00 | 73 | 1013.4 |
| 20260906110850 | 74 | 214 | 0.0 | 0.0 | 0.00 | 0.00 | 0.00 | 73 | 1013.0 |
| 20260906110346 | 74 | 259 | 0.0 | 0.0 | 0.00 | 0.00 | 0.00 | 73 | 1012.7 |
| 20260906105845 | 74 | 251 | 0.0 | 0.0 | 0.00 | 0.00 | 0.00 | 73 | 1012.7 |
| 20260906105341 | 74 | 239 | 0.0 | 0.0 | 0.00 | 0.00 | 0.00 | 73 | 1013.0 |
| 20260906104837 | 74 | 272 | 0.0 | 0.0 | 0.00 | 0.00 | 0.00 | 73 | 1012.7 |
| 20260906104335 | 75 | 199 | 0.0 | 0.0 | 0.00 | 0.00 | 0.00 | 72 | 1012.7 |
| 20260906103834 | 75 | 241 | 0.0 | 0.0 | 0.00 | 0.00 | 0.00 | 72 | 1012.7 |
| 20260906103332 | 75 | 256 | 0.0 | 0.0 | 0.00 | 0.00 | 0.00 | 72 | 1012.7 |
| 20260906102828 | 75 | 244 | 0.0 | 0.0 | 0.00 | 0.00 | 0.00 | 72 | 1012.7 |
| 20260906102327 | 75 | 223 | 0.0 | 0.0 | 0.00 | 0.00 | 0.00 | 72 | 1012.7 |
| 20260906101823 | 75 | 249 | 0.0 | 0.0 | 0.00 | 0.00 | 0.00 | 72 | 1012.7 |
| 20260906101318 | 75 | 231 | 0.0 | 0.0 | 0.00 | 0.00 | 0.00 | 72 | 1012.7 |
| 20260906100813 | 75 | 247 | 0.0 | 0.0 | 0.00 | 0.00 | 0.00 | 72 | 1012.7 |
| 20260906100312 | 75 | 208 | 0.0 | 0.0 | 0.00 | 0.00 | 0.00 | 72 | 1012.7 |
| 20260906095808 | 75 | 200 | 0.0 | 0.0 | 0.00 | 0.00 | 0.00 | 72 | 1012.7 |
| 20260906095306 | 75 | 218 | 0.0 | 0.0 | 0.00 | 0.00 | 0.00 | 71 | 1012.7 |
| 20260906094802 | 75 | 196 | 0.0 | 0.0 | 0.00 | 0.00 | 0.00 | 70 | 1013.0 |
| 20260906094257 | 75 | 251 | 0.0 | 0.0 | 0.00 | 0.00 | 0.00 | 70 | 1013.0 |
| 20260906093753 | 76 | 230 | 0.0 | 0.0 | 0.00 | 0.00 | 0.00 | 70 | 1012.7 |
| 20260906093249 | 76 | 237 | 0.0 | 0.0 | 0.00 | 0.00 | 0.00 | 70 | 1012.7 |
| 20260906092743 | 76 | 244 | 0.0 | 0.0 | 0.00 | 0.00 | 0.00 | 69 | 1013.0 |
| 20260906092238 | 76 | 229 | 0.0 | 0.0 | 0.00 | 0.00 | 0.00 | 69 | 1013.0 |
| 20260906091734 | 77 | 227 | 0.0 | 0.0 | 0.00 | 0.00 | 0.00 | 69 | 1013.0 |
| 20260906091230 | 77 | 229 | 0.0 | 0.0 | 0.00 | 0.00 | 0.00 | 67 | 1013.0 |
| 20260906090726 | 77 | 229 | 0.0 | 0.0 | 0.00 | 0.00 | 0.00 | 67 | 1013.0 |
| 20260906090225 | 77 | 207 | 0.0 | 0.0 | 0.00 | 0.00 | 0.00 | 67 | 1013.0 |
| 20260906085725 | 77 | 226 | 0.0 | 0.0 | 0.00 | 0.00 | 0.00 | 66 | 1013.0 |
| 20260906085224 | 77 | 203 | 0.0 | 0.0 | 0.00 | 0.00 | 0.00 | 66 | 1013.4 |
| 20260906084719 | 77 | 198 | 0.0 | 0.0 | 0.00 | 0.00 | 0.00 | 66 | 1013.4 |
| 20260906084213 | 77 | 84 | 0.0 | 0.0 | 0.00 | 0.00 | 0.00 | 66 | 1013.4 |
| 20260906083708 | 77 | 152 | 0.0 | 0.0 | 0.00 | 0.00 | 0.00 | 66 | 1013.4 |
| 20260906083204 | 77 | 231 | 0.0 | 0.0 | 0.00 | 0.00 | 0.00 | 68 | 1013.8 |
| 20260906082658 | 76 | 50 | 0.0 | 0.0 | 0.00 | 0.00 | 0.00 | 68 | 1013.8 |
| 20260906082154 | 76 | 79 | 0.0 | 0.0 | 0.00 | 0.00 | 0.00 | 68 | 1013.8 |
| 20260906081649 | 75 | 234 | 0.0 | 0.0 | 0.00 | 0.00 | 0.00 | 71 | 1014.1 |
| 20260906081144 | 75 | 59 | 0.0 | 0.0 | 0.00 | 0.00 | 0.00 | 71 | 1013.8 |
| 20260906080641 | 75 | 218 | 0.0 | 0.0 | 0.00 | 0.00 | 0.00 | 71 | 1013.8 |
| 20260906080136 | 75 | 247 | 0.0 | 0.0 | 0.00 | 0.00 | 0.00 | 71 | 1013.4 |
| 20260906075630 | 75 | 254 | 0.0 | 0.0 | 0.00 | 0.00 | 0.00 | 71 | 1013.8 |
| 20260906075125 | 75 | 237 | 0.0 | 0.0 | 0.00 | 0.00 | 0.00 | 70 | 1013.4 |
| 20260906074620 | 76 | 219 | 0.0 | 0.0 | 0.00 | 0.00 | 0.00 | 70 | 1012.7 |
| 20260906074119 | 76 | 236 | 0.0 | 0.0 | 0.00 | 0.00 | 0.00 | 69 | 1013.0 |
| 20260906073614 | 76 | 206 | 0.0 | 0.0 | 0.00 | 0.00 | 0.00 | 69 | 1012.7 |
| 20260906073110 | 76 | 222 | 0.0 | 0.0 | 0.00 | 0.00 | 0.00 | 69 | 1012.7 |
| 20260906072604 | 76 | 239 | 0.0 | 0.0 | 0.00 | 0.00 | 0.00 | 69 | 1012.7 |
| 20260906072101 | 75 | 251 | 0.0 | 0.0 | 0.00 | 0.00 | 0.00 | 69 | 1012.7 |
| 20260906071557 | 75 | 256 | 0.0 | 0.0 | 0.00 | 0.00 | 0.00 | 69 | 1012.7 |
| 20260906071051 | 75 | 282 | 0.0 | 0.0 | 0.00 | 0.00 | 0.00 | 70 | 1012.7 |
| 20260906070548 | 75 | 190 | 0.0 | 0.0 | 0.00 | 0.00 | 0.00 | 71 | 1013.0 |
| 20260906070043 | 75 | 247 | 0.0 | 0.0 | 0.00 | 0.00 | 0.00 | 71 | 1013.4 |
| 20260906065543 | 75 | 305 | 0.0 | 0.0 | 0.00 | 0.00 | 0.00 | 77 | 1013.8 |
| 20260906065038 | 75 | 237 | 0.0 | 0.0 | 0.00 | 0.00 | 0.00 | 88 | 1014.1 |
| 20260906064534 | 74 | 247 | 0.0 | 0.0 | 0.00 | 0.00 | 0.00 | 84 | 1013.4 |
| 20260906064029 | 75 | 282 | 0.0 | 0.0 | 0.00 | 0.00 | 0.00 | 89 | 1013.4 |
| 20260906063524 | 74 | 236 | 0.0 | 0.0 | 0.00 | 0.00 | 0.00 | 87 | 1013.4 |
| 20260906063020 | 74 | 221 | 0.0 | 0.0 | 0.00 | 0.00 | 0.00 | 87 | 1013.4 |
| 20260906062515 | 74 | 220 | 0.0 | 0.0 | 0.00 | 0.00 | 0.00 | 87 | 1013.4 |
| 20260906062009 | 74 | 243 | 0.0 | 0.0 | 0.00 | 0.00 | 0.00 | 85 | 1013.8 |
| 20260906061505 | 74 | 245 | 0.0 | 0.0 | 0.00 | 0.00 | 0.00 | 87 | 1013.8 |
| 20260906060959 | 74 | 238 | 0.0 | 0.0 | 0.00 | 0.00 | 0.00 | 85 | 1013.8 |
| 20260906060456 | 74 | 180 | 0.0 | 0.0 | 0.00 | 0.00 | 0.00 | 86 | 1013.0 |
| 20260906055953 | 74 | 279 | 0.0 | 0.0 | 0.00 | 0.00 | 0.00 | 87 | 1013.0 |
| 20260906055449 | 74 | 225 | 0.0 | 0.0 | 0.00 | 0.00 | 0.00 | 87 | 1013.0 |
| 20260906054944 | 74 | 277 | 0.0 | 0.0 | 0.00 | 0.00 | 0.00 | 87 | 1013.4 |
| 20260906054443 | 74 | 250 | 0.0 | 0.0 | 0.00 | 0.00 | 0.00 | 86 | 1013.0 |
| 20260906053939 | 74 | 222 | 0.0 | 0.0 | 0.00 | 0.00 | 0.00 | 85 | 1013.0 |
| 20260906053436 | 74 | 239 | 0.0 | 0.0 | 0.00 | 0.00 | 0.00 | 84 | 1013.4 |
| 20260906052931 | 74 | 210 | 0.0 | 0.0 | 0.00 | 0.00 | 0.00 | 85 | 1013.0 |
| 20260906052427 | 74 | 228 | 0.0 | 0.0 | 0.00 | 0.00 | 0.00 | 83 | 1013.0 |
| 20260906051923 | 74 | 269 | 0.0 | 0.0 | 0.00 | 0.00 | 0.00 | 84 | 1013.4 |
| 20260906051418 | 74 | 275 | 0.0 | 0.0 | 0.00 | 0.00 | 0.00 | 84 | 1013.4 |
| 20260906050914 | 74 | 207 | 0.0 | 0.0 | 0.00 | 0.00 | 0.00 | 81 | 1013.4 |
| 20260906050414 | 74 | 252 | 0.0 | 0.0 | 0.00 | 0.00 | 0.00 | 80 | 1013.0 |
| 20260906045913 | 74 | 234 | 0.0 | 0.0 | 0.00 | 0.00 | 0.00 | 79 | 1013.4 |
| 20260906045412 | 74 | 232 | 0.0 | 0.0 | 0.00 | 0.00 | 0.00 | 79 | 1013.0 |
| 20260906044908 | 74 | 232 | 0.0 | 0.0 | 0.00 | 0.00 | 0.00 | 78 | 1013.4 |
| 20260906044403 | 74 | 228 | 0.0 | 0.0 | 0.00 | 0.00 | 0.00 | 77 | 1013.8 |
| 20260906043859 | 74 | 235 | 0.0 | 0.0 | 0.00 | 0.00 | 0.00 | 77 | 1013.8 |
| 20260906043354 | 74 | 261 | 0.0 | 0.0 | 0.00 | 0.00 | 0.00 | 77 | 1014.1 |
| 20260906042850 | 74 | 248 | 0.0 | 0.0 | 0.00 | 0.00 | 0.00 | 77 | 1013.8 |
| 20260906042348 | 75 | 261 | 0.0 | 0.0 | 0.00 | 0.00 | 0.00 | 78 | 1013.8 |
| 20260906041844 | 75 | 279 | 0.0 | 0.0 | 0.00 | 0.00 | 0.00 | 78 | 1013.8 |
| 20260906041340 | 75 | 219 | 0.0 | 0.0 | 0.00 | 0.00 | 0.00 | 77 | 1013.4 |
| 20260906040840 | 75 | 237 | 0.0 | 0.0 | 0.00 | 0.00 | 0.00 | 76 | 1013.8 |
| 20260906040335 | 75 | 220 | 0.0 | 0.0 | 0.00 | 0.00 | 0.00 | 77 | 1013.8 |
| 20260906035830 | 75 | 281 | 0.0 | 0.0 | 0.00 | 0.20 | 0.20 | 77 | 1013.8 |
| 20260906035325 | 75 | 245 | 0.0 | 0.0 | 0.00 | 0.20 | 0.20 | 76 | 1013.4 |
| 20260906034821 | 75 | 237 | 0.0 | 0.0 | 0.00 | 0.20 | 0.20 | 76 | 1013.8 |
| 20260906034315 | 75 | 214 | 0.0 | 0.0 | 0.00 | 0.20 | 0.20 | 76 | 1013.8 |
| 20260906033811 | 75 | 226 | 0.0 | 0.0 | 0.00 | 0.20 | 0.20 | 75 | 1013.8 |
| 20260906033310 | 75 | 274 | 0.0 | 0.0 | 0.00 | 0.20 | 0.20 | 76 | 1013.8 |
| 20260906032807 | 75 | 210 | 0.0 | 0.0 | 0.00 | 0.20 | 0.20 | 76 | 1013.8 |
| 20260906032305 | 75 | 229 | 0.0 | 0.0 | 0.00 | 0.20 | 0.20 | 75 | 1013.8 |
| 20260906031757 | 75 | 237 | 0.0 | 0.0 | 0.00 | 0.20 | 0.20 | 75 | 1013.8 |
| 20260906031253 | 75 | 250 | 0.0 | 0.0 | 0.00 | 0.20 | 0.20 | 75 | 1013.8 |
| 20260906030752 | 75 | 224 | 0.0 | 0.0 | 0.00 | 0.20 | 0.20 | 74 | 1013.8 |
| 20260906030248 | 75 | 261 | 0.0 | 0.0 | 0.00 | 0.20 | 0.20 | 74 | 1014.1 |
| 20260906025747 | 75 | 195 | 0.0 | 0.0 | 0.00 | 0.20 | 0.20 | 75 | 1014.1 |
| 20260906025241 | 75 | 219 | 0.0 | 0.0 | 0.00 | 0.20 | 0.20 | 73 | 1013.8 |
| 20260906024741 | 75 | 213 | 0.0 | 0.0 | 0.00 | 0.20 | 0.20 | 73 | 1013.8 |
| 20260906024239 | 75 | 269 | 0.0 | 0.0 | 0.00 | 0.20 | 0.20 | 73 | 1013.4 |
| 20260906023735 | 75 | 238 | 0.0 | 0.0 | 0.00 | 0.20 | 0.20 | 74 | 1013.4 |
| 20260906023231 | 75 | 250 | 0.0 | 0.0 | 0.00 | 0.20 | 0.20 | 73 | 1013.4 |
| 20260906022726 | 75 | 221 | 0.0 | 0.0 | 0.00 | 0.20 | 0.20 | 72 | 1013.0 |
| 20260906022221 | 75 | 253 | 0.0 | 0.0 | 0.00 | 0.20 | 0.20 | 72 | 1013.0 |
| 20260906021717 | 75 | 219 | 0.0 | 0.0 | 0.00 | 0.20 | 0.20 | 72 | 1013.0 |
| 20260906021216 | 75 | 231 | 0.0 | 0.0 | 0.00 | 0.20 | 0.20 | 72 | 1012.7 |
| 20260906020711 | 75 | 239 | 0.0 | 0.0 | 0.00 | 0.20 | 0.20 | 72 | 1013.0 |
| 20260906020206 | 75 | 221 | 0.0 | 0.0 | 0.00 | 0.20 | 0.20 | 72 | 1013.0 |
| 20260906015700 | 75 | 229 | 0.0 | 0.0 | 0.00 | 0.20 | 0.20 | 72 | 1013.0 |
| 20260906015159 | 75 | 229 | 0.0 | 0.0 | 0.00 | 0.20 | 0.20 | 72 | 1013.0 |
| 20260906014659 | 75 | 234 | 0.0 | 0.0 | 0.00 | 0.20 | 0.20 | 72 | 1012.7 |
| 20260906014155 | 75 | 233 | 0.0 | 0.0 | 0.00 | 0.20 | 0.20 | 71 | 1013.0 |
| 20260906013651 | 75 | 260 | 0.0 | 0.0 | 0.00 | 0.20 | 0.20 | 71 | 1013.0 |
| 20260906013145 | 76 | 224 | 0.0 | 0.0 | 0.00 | 0.20 | 0.20 | 71 | 1013.0 |
| 20260906012640 | 76 | 224 | 0.0 | 0.0 | 0.00 | 0.20 | 0.20 | 71 | 1012.7 |
| 20260906012140 | 76 | 276 | 0.0 | 0.0 | 0.00 | 0.20 | 0.20 | 71 | 1012.7 |
| 20260906011636 | 76 | 266 | 0.0 | 0.0 | 0.00 | 0.20 | 0.20 | 71 | 1012.7 |
| 20260906011131 | 76 | 228 | 0.0 | 0.0 | 0.00 | 0.20 | 0.20 | 71 | 1012.7 |
| 20260906010626 | 76 | 228 | 0.0 | 0.0 | 0.00 | 0.20 | 0.20 | 71 | 1012.7 |
| 20260906010122 | 76 | 222 | 0.0 | 0.0 | 0.00 | 0.20 | 0.20 | 70 | 1012.7 |
| 20260906005621 | 76 | 286 | 0.0 | 0.0 | 0.00 | 0.20 | 0.20 | 71 | 1012.7 |
| 20260906005120 | 76 | 206 | 0.0 | 0.0 | 0.00 | 0.20 | 0.20 | 71 | 1012.3 |
| 20260906004614 | 76 | 264 | 0.0 | 0.0 | 0.00 | 0.20 | 0.20 | 71 | 1012.7 |
| 20260906004109 | 77 | 260 | 0.0 | 0.0 | 0.00 | 0.20 | 0.20 | 71 | 1012.7 |
| 20260906003604 | 77 | 212 | 0.0 | 0.0 | 0.00 | 0.20 | 0.20 | 71 | 1012.3 |
| 20260906003100 | 77 | 242 | 0.0 | 0.0 | 0.00 | 0.20 | 0.20 | 70 | 1012.3 |
| 20260906002555 | 77 | 265 | 0.0 | 0.0 | 0.00 | 0.20 | 0.20 | 69 | 1012.7 |
| 20260906002050 | 77 | 270 | 0.0 | 0.0 | 0.00 | 0.20 | 0.20 | 69 | 1012.3 |
| 20260906001545 | 77 | 244 | 0.0 | 0.0 | 0.00 | 0.20 | 0.20 | 69 | 1012.7 |
| 20260906001039 | 77 | 292 | 0.0 | 0.0 | 0.00 | 0.20 | 0.20 | 69 | 1012.3 |
| 20260906000535 | 77 | 225 | 0.0 | 0.0 | 0.00 | 0.20 | 0.20 | 69 | 1012.3 |
| 20260906000030 | 77 | 271 | 0.0 | 0.0 | 0.00 | 0.20 | 0.20 | 69 | 1012.7 |
| 20260905235524 | 77 | 260 | 0.0 | 0.0 | 0.00 | 0.20 | 0.20 | 69 | 1012.7 |
| 20260905235019 | 78 | 220 | 0.0 | 0.0 | 0.00 | 0.20 | 0.20 | 69 | 1012.7 |
| 20260905234515 | 77 | 245 | 0.0 | 0.0 | 0.00 | 0.20 | 0.20 | 69 | 1012.7 |
| 20260905234009 | 78 | 244 | 0.0 | 0.0 | 0.00 | 0.20 | 0.20 | 69 | 1012.3 |
| 20260905233504 | 79 | 237 | 0.0 | 0.0 | 0.00 | 0.20 | 0.20 | 69 | 1012.3 |
| 20260905233004 | 79 | 217 | 0.0 | 0.0 | 0.00 | 0.20 | 0.20 | 69 | 1012.3 |
| 20260905232459 | 79 | 254 | 0.0 | 0.0 | 0.00 | 0.20 | 0.20 | 69 | 1012.7 |
| 20260905231955 | 79 | 301 | 0.0 | 0.0 | 0.00 | 0.20 | 0.20 | 69 | 1012.7 |
| 20260905231450 | 81 | 271 | 0.0 | 0.0 | 0.00 | 0.20 | 0.20 | 66 | 1012.0 |
| 20260905230946 | 80 | 183 | 0.0 | 0.0 | 0.00 | 0.20 | 0.20 | 66 | 1012.3 |
| 20260905230445 | 80 | 264 | 0.0 | 0.0 | 0.00 | 0.20 | 0.20 | 67 | 1012.3 |
| 20260905225943 | 80 | 265 | 0.0 | 0.0 | 0.00 | 0.20 | 0.20 | 67 | 1012.0 |
| 20260905225439 | 79 | 283 | 0.0 | 0.0 | 0.00 | 0.20 | 0.20 | 67 | 1012.0 |
| 20260905224933 | 79 | 229 | 0.0 | 0.0 | 0.00 | 0.20 | 0.20 | 68 | 1011.6 |
| 20260905224429 | 80 | 161 | 0.0 | 0.0 | 0.00 | 0.20 | 0.20 | 68 | 1012.0 |
| 20260905223928 | 81 | 289 | 0.0 | 0.0 | 0.00 | 0.20 | 0.20 | 66 | 1012.0 |
| 20260905223427 | 81 | 241 | 0.0 | 0.0 | 0.00 | 0.20 | 0.20 | 67 | 1012.0 |
| 20260905222927 | 80 | 329 | 0.0 | 0.0 | 0.00 | 0.20 | 0.20 | 66 | 1012.3 |
| 20260905222426 | 80 | 221 | 0.0 | 0.0 | 0.00 | 0.20 | 0.20 | 67 | 1012.0 |
| 20260905221922 | 81 | 264 | 0.0 | 0.0 | 0.00 | 0.20 | 0.20 | 66 | 1012.7 |
| 20260905221419 | 80 | 198 | 0.0 | 0.0 | 0.00 | 0.20 | 0.20 | 67 | 1012.3 |
| 20260905220915 | 82 | 262 | 0.0 | 0.0 | 0.00 | 0.20 | 0.20 | 65 | 1012.3 |
| 20260905220410 | 82 | 225 | 0.0 | 0.0 | 0.00 | 0.20 | 0.20 | 64 | 1012.7 |
| 20260905215909 | 81 | 207 | 0.0 | 0.0 | 0.00 | 0.20 | 0.20 | 65 | 1012.3 |
| 20260905215405 | 82 | 156 | 0.0 | 0.0 | 0.00 | 0.20 | 0.20 | 65 | 1012.7 |
| 20260905214901 | 84 | 184 | 0.0 | 0.0 | 0.00 | 0.20 | 0.20 | 65 | 1012.7 |
| 20260905214356 | 85 | 290 | 0.0 | 0.0 | 0.00 | 0.20 | 0.20 | 59 | 1012.7 |
| 20260905213851 | 84 | 249 | 0.0 | 0.0 | 0.00 | 0.20 | 0.20 | 64 | 1013.0 |
| 20260905213347 | 83 | 173 | 0.0 | 0.0 | 0.00 | 0.20 | 0.20 | 67 | 1012.7 |
| 20260905212842 | 84 | 262 | 0.0 | 0.0 | 0.00 | 0.20 | 0.20 | 63 | 1012.7 |
| 20260905212342 | 82 | 285 | 0.0 | 0.0 | 0.00 | 0.20 | 0.20 | 62 | 1012.3 |
| 20260905211836 | 81 | 329 | 0.0 | 0.0 | 0.00 | 0.20 | 0.20 | 64 | 1012.7 |
| 20260905211332 | 80 | 233 | 0.0 | 0.0 | 0.00 | 0.20 | 0.20 | 66 | 1012.7 |
| 20260905210828 | 80 | 140 | 0.0 | 0.0 | 0.00 | 0.20 | 0.20 | 67 | 1013.0 |
| 20260905210328 | 78 | 155 | 0.0 | 0.0 | 0.00 | 0.20 | 0.20 | 68 | 1012.7 |
| 20260905205827 | 78 | 118 | 0.0 | 0.0 | 0.00 | 0.20 | 0.20 | 70 | 1013.4 |
| 20260905205321 | 77 | 216 | 0.0 | 0.0 | 0.00 | 0.20 | 0.20 | 75 | 1013.4 |
| 20260905204821 | 77 | 154 | 0.0 | 0.0 | 0.00 | 0.20 | 0.20 | 75 | 1013.0 |
| 20260905204317 | 77 | 273 | 0.0 | 0.0 | 0.00 | 0.20 | 0.20 | 72 | 1013.4 |
| 20260905203816 | 77 | 180 | 0.0 | 0.0 | 0.00 | 0.20 | 0.20 | 74 | 1013.4 |
| 20260905203312 | 77 | 212 | 0.0 | 0.0 | 0.00 | 0.20 | 0.20 | 72 | 1013.0 |
| 20260905202807 | 77 | 267 | 0.0 | 0.0 | 0.00 | 0.20 | 0.20 | 73 | 1013.4 |
| 20260905202306 | 77 | 28 | 0.0 | 0.0 | 0.07 | 0.20 | 0.20 | 72 | 1013.0 |
| 20260905201757 | 77 | 308 | 0.0 | 0.0 | 0.35 | 0.20 | 0.20 | 73 | 1012.7 |
| 20260905201253 | 76 | 80 | 0.0 | 0.0 | 0.92 | 0.19 | 0.19 | 72 | 1012.7 |
| 20260905200747 | 78 | 88 | 0.0 | 2.0 | 0.64 | 0.13 | 0.13 | 71 | 1013.0 |
| 20260905200243 | 80 | 121 | 0.0 | 10.0 | 0.07 | 0.04 | 0.04 | 67 | 1013.0 |
| 20260905195741 | 80 | 0 | 0.0 | 5.0 | 0.00 | 0.02 | 0.02 | 68 | 1013.0 |
| 20260905195236 | 81 | 147 | 0.0 | 5.0 | 0.14 | 0.02 | 0.02 | 67 | 1013.4 |
| 20260905194732 | 89 | 348 | 0.0 | 2.0 | 0.14 | 0.02 | 0.02 | 61 | 1013.4 |
| 20260905194231 | 99 | 264 | 0.0 | 0.0 | 0.00 | 0.00 | 0.00 | 45 | 1012.7 |
| 20260905193725 | 98 | 243 | 0.0 | 0.0 | 0.00 | 0.00 | 0.00 | 45 | 1012.7 |
| 20260905193220 | 99 | 278 | 0.0 | 2.0 | 0.00 | 0.00 | 0.00 | 45 | 1012.7 |
| 20260905192716 | 100 | 244 | 0.0 | 0.0 | 0.00 | 0.00 | 0.00 | 45 | 1012.7 |
| 20260905192213 | 99 | 228 | 0.0 | 0.0 | 0.00 | 0.00 | 0.00 | 45 | 1012.7 |
| 20260905191711 | 98 | 217 | 0.0 | 2.0 | 0.00 | 0.00 | 0.00 | 45 | 1013.0 |
| 20260905191209 | 95 | 303 | 0.0 | 5.0 | 0.00 | 0.00 | 0.00 | 46 | 1012.7 |
| 20260905190708 | 96 | 256 | 0.0 | 0.0 | 0.00 | 0.00 | 0.00 | 45 | 1012.7 |
| 20260905190207 | 95 | 280 | 0.0 | 0.0 | 0.00 | 0.00 | 0.00 | 45 | 1013.0 |
| 20260905185706 | 96 | 250 | 0.0 | 0.0 | 0.00 | 0.00 | 0.00 | 45 | 1013.4 |
| 20260905185201 | 94 | 289 | 0.0 | 13.0 | 0.00 | 0.00 | 0.00 | 46 | 1013.4 |
| 20260905184701 | 95 | 269 | 0.0 | 10.0 | 0.00 | 0.00 | 0.00 | 46 | 1013.0 |
| 20260905184200 | 97 | 243 | 0.0 | 2.0 | 0.00 | 0.00 | 0.00 | 45 | 1013.0 |
| 20260905183654 | 95 | 210 | 0.0 | 0.0 | 0.00 | 0.00 | 0.00 | 45 | 1013.0 |
| 20260905183149 | 97 | 265 | 0.0 | 0.0 | 0.00 | 0.00 | 0.00 | 45 | 1013.0 |
| 20260905182649 | 93 | 215 | 0.0 | 0.0 | 0.00 | 0.00 | 0.00 | 46 | 1013.4 |
| 20260905182149 | 93 | 209 | 0.0 | 0.0 | 0.00 | 0.00 | 0.00 | 47 | 1013.4 |
| 20260905181644 | 94 | 184 | 0.0 | 0.0 | 0.00 | 0.00 | 0.00 | 46 | 1013.4 |
| 20260905181143 | 93 | 332 | 0.0 | 0.0 | 0.00 | 0.00 | 0.00 | 46 | 1013.4 |
| 20260905180638 | 94 | 231 | 0.0 | 0.0 | 0.00 | 0.00 | 0.00 | 46 | 1013.8 |
| 20260905180133 | 95 | 283 | 0.0 | 0.0 | 0.00 | 0.00 | 0.00 | 45 | 1013.8 |
| 20260905175632 | 96 | 9 | 0.0 | 0.0 | 0.00 | 0.00 | 0.00 | 45 | 1013.8 |
| 20260905175128 | 95 | 192 | 0.0 | 0.0 | 0.00 | 0.00 | 0.00 | 46 | 1013.8 |
| 20260905174623 | 95 | 165 | 0.0 | 0.0 | 0.00 | 0.00 | 0.00 | 46 | 1013.8 |
| 20260905174118 | 95 | 244 | 0.0 | 0.0 | 0.00 | 0.00 | 0.00 | 46 | 1013.8 |
| 20260905173615 | 96 | 162 | 0.0 | 2.0 | 0.00 | 0.00 | 0.00 | 45 | 1013.8 |
| 20260905173110 | 96 | 147 | 0.0 | 0.0 | 0.00 | 0.00 | 0.00 | 45 | 1014.1 |
| 20260905172609 | 95 | 0 | 0.0 | 2.0 | 0.00 | 0.00 | 0.00 | 46 | 1014.1 |
| 20260905172104 | 96 | 143 | 0.0 | 2.0 | 0.00 | 0.00 | 0.00 | 45 | 1014.1 |
| 20260905171601 | 96 | 205 | 0.0 | 5.0 | 0.00 | 0.00 | 0.00 | 45 | 1014.1 |
| 20260905171056 | 94 | 216 | 0.0 | 0.0 | 0.00 | 0.00 | 0.00 | 46 | 1014.4 |
| 20260905170553 | 95 | 272 | 0.0 | 0.0 | 0.00 | 0.00 | 0.00 | 46 | 1014.1 |
| 20260905170048 | 95 | 118 | 0.0 | 2.0 | 0.00 | 0.00 | 0.00 | 46 | 1014.1 |
| 20260905165543 | 94 | 298 | 0.0 | 8.0 | 0.00 | 0.00 | 0.00 | 46 | 1014.4 |
| 20260905165037 | 94 | 199 | 0.0 | 0.0 | 0.00 | 0.00 | 0.00 | 49 | 1014.4 |
| 20260905164532 | 95 | 292 | 0.0 | 0.0 | 0.00 | 0.00 | 0.00 | 46 | 1014.4 |
| 20260905164027 | 94 | 328 | 0.0 | 0.0 | 0.00 | 0.00 | 0.00 | 56 | 1014.8 |
| 20260905163523 | 94 | 2 | 3.0 | 5.0 | 0.00 | 0.00 | 0.00 | 48 | 1014.8 |
| 20260905163019 | 93 | 157 | 0.0 | 0.0 | 0.00 | 0.00 | 0.00 | 57 | 1014.8 |
| 20260905162515 | 92 | 216 | 0.0 | 0.0 | 0.00 | 0.00 | 0.00 | 57 | 1014.8 |
| 20260905162009 | 94 | 178 | 0.0 | 0.0 | 0.00 | 0.00 | 0.00 | 56 | 1014.8 |
| 20260905161509 | 93 | 100 | 0.0 | 0.0 | 0.00 | 0.00 | 0.00 | 57 | 1014.4 |
| 20260905161006 | 93 | 106 | 0.0 | 0.0 | 0.00 | 0.00 | 0.00 | 58 | 1014.8 |
| 20260905160500 | 91 | 176 | 0.0 | 0.0 | 0.00 | 0.00 | 0.00 | 58 | 1014.8 |
| 20260905160000 | 91 | 255 | 0.0 | 0.0 | 0.00 | 0.00 | 0.00 | 56 | 1014.8 |
| 20260905155455 | 91 | 159 | 0.0 | 0.0 | 0.00 | 0.00 | 0.00 | 56 | 1014.8 |
| 20260905154953 | 91 | 116 | 0.0 | 0.0 | 0.00 | 0.00 | 0.00 | 57 | 1014.8 |
| 20260905154448 | 90 | 182 | 0.0 | 2.0 | 0.00 | 0.00 | 0.00 | 57 | 1015.1 |
| 20260905153944 | 89 | 191 | 0.0 | 0.0 | 0.00 | 0.00 | 0.00 | 58 | 1014.8 |
| 20260905153440 | 88 | 87 | 0.0 | 0.0 | 0.00 | 0.00 | 0.00 | 59 | 1015.1 |
| 20260905152939 | 89 | 101 | 0.0 | 0.0 | 0.00 | 0.00 | 0.00 | 58 | 1015.1 |
| 20260905152440 | 89 | 177 | 0.0 | 0.0 | 0.00 | 0.00 | 0.00 | 59 | 1015.1 |
| 20260905151940 | 88 | 158 | 0.0 | 0.0 | 0.00 | 0.00 | 0.00 | 59 | 1015.1 |
| 20260905151435 | 88 | 181 | 0.0 | 0.0 | 0.00 | 0.00 | 0.00 | 58 | 1015.5 |
| 20260905150930 | 88 | 349 | 0.0 | 0.0 | 0.00 | 0.00 | 0.00 | 59 | 1015.1 |
| 20260905150425 | 87 | 358 | 0.0 | 0.0 | 0.00 | 0.00 | 0.00 | 60 | 1015.1 |
| 20260905145921 | 87 | 291 | 0.0 | 0.0 | 0.00 | 0.00 | 0.00 | 61 | 1015.5 |
| 20260905145416 | 87 | 151 | 0.0 | 0.0 | 0.00 | 0.00 | 0.00 | 61 | 1015.5 |
| 20260905144915 | 87 | 171 | 0.0 | 0.0 | 0.00 | 0.00 | 0.00 | 61 | 1015.5 |
| 20260905144411 | 86 | 116 | 0.0 | 0.0 | 0.00 | 0.00 | 0.00 | 61 | 1015.5 |
| 20260905143909 | 86 | 240 | 0.0 | 0.0 | 0.00 | 0.00 | 0.00 | 62 | 1015.5 |
| 20260905143404 | 86 | 179 | 0.0 | 0.0 | 0.00 | 0.00 | 0.00 | 62 | 1015.5 |
| 20260905142903 | 86 | 174 | 0.0 | 0.0 | 0.00 | 0.00 | 0.00 | 63 | 1015.5 |
| 20260905142402 | 85 | 182 | 0.0 | 0.0 | 0.00 | 0.00 | 0.00 | 63 | 1015.5 |
| 20260905141858 | 85 | 159 | 0.0 | 0.0 | 0.00 | 0.00 | 0.00 | 63 | 1015.5 |
| 20260905141353 | 84 | 147 | 0.0 | 0.0 | 0.00 | 0.00 | 0.00 | 63 | 1015.5 |
| 20260905140850 | 84 | 205 | 0.0 | 0.0 | 0.00 | 0.00 | 0.00 | 63 | 1015.8 |
| 20260905140349 | 83 | 153 | 0.0 | 0.0 | 0.00 | 0.00 | 0.00 | 64 | 1015.5 |
| 20260905135848 | 83 | 149 | 0.0 | 0.0 | 0.00 | 0.00 | 0.00 | 64 | 1015.8 |
| 20260905135344 | 83 | 200 | 0.0 | 0.0 | 0.00 | 0.00 | 0.00 | 66 | 1015.8 |
| 20260905134839 | 82 | 191 | 0.0 | 0.0 | 0.00 | 0.00 | 0.00 | 63 | 1015.8 |
| 20260905134338 | 82 | 184 | 0.0 | 0.0 | 0.00 | 0.00 | 0.00 | 64 | 1015.8 |
| 20260905133833 | 81 | 210 | 0.0 | 0.0 | 0.00 | 0.00 | 0.00 | 64 | 1015.8 |
| 20260905133328 | 81 | 212 | 0.0 | 0.0 | 0.00 | 0.00 | 0.00 | 64 | 1015.8 |
| 20260905132827 | 80 | 194 | 0.0 | 0.0 | 0.00 | 0.00 | 0.00 | 66 | 1015.8 |
| 20260905132323 | 81 | 140 | 0.0 | 0.0 | 0.00 | 0.00 | 0.00 | 64 | 1015.8 |
| 20260905131817 | 81 | 225 | 0.0 | 0.0 | 0.00 | 0.00 | 0.00 | 64 | 1016.1 |
| 20260905131313 | 80 | 226 | 0.0 | 0.0 | 0.00 | 0.00 | 0.00 | 64 | 1016.1 |
| 20260905130808 | 79 | 237 | 0.0 | 0.0 | 0.00 | 0.00 | 0.00 | 66 | 1016.1 |
| 20260905130306 | 79 | 234 | 0.0 | 0.0 | 0.00 | 0.00 | 0.00 | 67 | 1016.1 |
| 20260905125802 | 77 | 234 | 0.0 | 0.0 | 0.00 | 0.00 | 0.00 | 67 | 1015.8 |
| 20260905125256 | 77 | 234 | 0.0 | 0.0 | 0.00 | 0.00 | 0.00 | 68 | 1016.1 |
| 20260905124753 | 77 | 234 | 0.0 | 0.0 | 0.00 | 0.00 | 0.00 | 68 | 1016.1 |
| 20260905124249 | 77 | 229 | 0.0 | 0.0 | 0.00 | 0.00 | 0.00 | 68 | 1015.8 |
| 20260905123743 | 77 | 229 | 0.0 | 0.0 | 0.00 | 0.00 | 0.00 | 70 | 1015.8 |
| 20260905123241 | 76 | 229 | 0.0 | 0.0 | 0.00 | 0.00 | 0.00 | 70 | 1015.8 |
| 20260905122741 | 76 | 230 | 0.0 | 0.0 | 0.00 | 0.00 | 0.00 | 71 | 1015.8 |
| 20260905122234 | 76 | 230 | 0.0 | 0.0 | 0.00 | 0.00 | 0.00 | 71 | 1015.8 |
| 20260905121730 | 75 | 227 | 0.0 | 0.0 | 0.00 | 0.00 | 0.00 | 72 | 1015.8 |
| 20260905121226 | 75 | 227 | 0.0 | 0.0 | 0.00 | 0.00 | 0.00 | 72 | 1015.8 |
| 20260905120725 | 75 | 251 | 0.0 | 0.0 | 0.00 | 0.00 | 0.00 | 74 | 1015.8 |
| 20260905120220 | 75 | 235 | 0.0 | 0.0 | 0.00 | 0.00 | 0.00 | 75 | 1015.5 |